SAEZSABE

Guest
Details From SAEZ - Ministro Pistarini (ezeiza)
To SABE - Aeroparque Jorge Newbery
Flight Number -
Tags Decoded
Created
Modified
Stats Distance 16 nm / 30 km
Max Altitude 0 ft / 0 m
Waypoints 2
Social Downloads 2
Likes 0
Share VATSIM

Download

Looking for another format? Having issues loading an existing format? Contact us
Advertisement - Login to hide

Notes

Decoded

Route

SAEZ SABE

ID Type Via Altitude Latitude Longitude Leg Dist Tot Dist Heading (true) Name
O SAEZ APT - 0 ft / 0 m -34.80841˚ -58.53386˚ - 0 nm - -
O SABE APT - 0 ft / 0 m -34.55416˚ -58.42526˚ 16 nm 16 nm 19° / 19° -

Altitude Profile

Advertisement - Login to hide

SAEZ

Details ICAO SAEZ (EZE)
Name Ministro Pistarini (Ezeiza)
Region Argentina
Timezone America/Argentina/Buenos_Aires (UTC-3.0)
Stats Elevation 66 ft / 20 m (AMSL)
Location -34.821380° -58.532731°
Runways 2
Magnetic Variation 8.798° W

METAR

SAEZ 272100Z 08007KT 7000 NSC 19/14 Q1015 NOSIG

Decode

TAF

TAF SAEZ 271700Z 2718/2818 05005KT FEW025 SCT100 TX24/2817Z TN18/2810Z BECMG 2802/2805 05010KT 5000 BR SCT015 SCT100 BECMG 2811/2813 02015KT 9999 SCT025 BKN100 BECMG 2816/2818 34015KT 8000 SHRA BKN015 FEW040CB BKN045

Decode

Departure Runways

ID Width Length Bearing (true) Bearing (mag) Surface Threshold Offset Overrun Length
11 190 ft / 58 m 10,778 ft / 3,285 m 102.20° 111.00° Asphalt 0 ft / 0 m 0 ft / 0 m
17 151 ft / 46 m 9,153 ft / 2,790 m 163.98° 172.78° Asphalt 0 ft / 0 m 98 ft / 30 m
29 190 ft / 58 m 10,778 ft / 3,285 m 282.18° 290.98° Asphalt 0 ft / 0 m 115 ft / 35 m
35 151 ft / 46 m 9,153 ft / 2,790 m 343.98° 352.78° Asphalt 984 ft / 300 m 1,024 ft / 312 m

SABE

Details ICAO SABE (AEP)
Name Aeroparque Jorge Newbery
Region Argentina
Timezone Unknown (UTC+0.0)
Stats Elevation 17 ft / 5 m (AMSL)
Location -34.559414° -58.415749°
Runways 1
Magnetic Variation 9.055° W

METAR

SABE 272100Z 09004KT 060V140 7000 NSC 18/14 Q1015 NOSIG

Decode

TAF

TAF SABE 271700Z 2718/2818 36005KT 9999 SCT040 BKN100 TX24/2818Z TN17/2712Z BECMG 2723/2802 07010KT 9999 BKN025 OVC040 BECMG 2807/2809 02015G25KT 9999 BKN015 BKN040 TEMPO 2808/2818 7000 RA BKN010 BKN040

Decode

Destination Runways

ID Width Length Bearing (true) Bearing (mag) Surface Threshold Offset Overrun Length
13 131 ft / 40 m 6,882 ft / 2,098 m 123.87° 132.93° Concrete 0 ft / 0 m 791 ft / 241 m
31 131 ft / 40 m 6,882 ft / 2,098 m 303.86° 312.92° Concrete 991 ft / 302 m 0 ft / 0 m

Approach Navaids

Runway Type Ident Frequency Range Bearing (true) Bearing (mag) Slope Elevation
13 Localiser AE 109.50 MHz 18 nm / 33 km 123.95° 133.01° - 17 ft / 5 m (AMSL)
13 Glidescope AE 109.50 MHz 10 nm / 19 km 124.47° 133.52° 3.00° 17 ft / 5 m (AMSL)
13 DME AE 109.50 MHz 18 nm / 33 km - - - 17 ft / 5 m (AMSL)

Popular Alternatives